{"data":{"norad_id":62644,"epoch":"2026-09-22T17:46:30.529632Z","epoch_age_seconds":123774,"freshness":"FRESH","line1":"1 62644U 25009AM  26265.74063113  .00107069  00000+0  13942-2 0  9997","line2":"2 62644  97.3975 355.3747 0000738 103.3821 256.7517 15.58382804 94341","mean_motion":15.58382804,"eccentricity":7.38e-5,"inclination_deg":97.3975,"raan_deg":355.3747,"arg_perigee_deg":103.3821,"mean_anomaly_deg":256.7517,"bstar":0.0013942,"rev_number":9434,"period_min":92.403483682177,"perigee_km":391.83736685625,"apogee_km":392.83668882276,"semimajor_km":6770.4740278395,"source":"CELESTRAK","updated_at":"2026-09-23T09:00:21.537208Z"}}